• In Österreich
  • Länderverzeichnis
  • Für 7 Tage
  • Wassertemperatur
  • Satellitenkarten
  • Wetterkarte
  • News
  • Widgets
  • user-avatar
    Anmelden

    Stündliche Wetter Kalgoorlie

    Heute, 25 Februar, Sonntag

    Zeit Temperatur Niederschläge Wind Luftdruck Luftfeuchtigkeit
    00:00 +22°C° 0 mm 8 m/S 730 mmHg 50%
    01:00 +21°C° 0 mm 8 m/S 730 mmHg 52%
    02:00 +21°C° 0 mm 9 m/S 729 mmHg 55%
    03:00 +20°C° 0 mm 8 m/S 729 mmHg 57%
    04:00 +18°C° 0 mm 8 m/S 729 mmHg 60%
    05:00 +18°C° 0 mm 8 m/S 729 mmHg 62%
    06:00 +18°C° 0 mm 8 m/S 729 mmHg 62%
    07:00 +18°C° 0 mm 8 m/S 729 mmHg 61%
    08:00 +20°C° 0 mm 8 m/S 729 mmHg 61%
    09:00 +20°C° 0,3 mm 8 m/S 729 mmHg 62%
    10:00 +20°C° 0,3 mm 8 m/S 728 mmHg 64%
    11:00 +20°C° 0,3 mm 7 m/S 728 mmHg 65%
    12:00 +20°C° 0,7 mm 7 m/S 728 mmHg 66%
    13:00 +21°C° 0,7 mm 6 m/S 728 mmHg 66%
    14:00 +21°C° 0,7 mm 6 m/S 727 mmHg 66%
    15:00 +22°C° 0,1 mm 6 m/S 727 mmHg 65%
    16:00 +23°C° 0,1 mm 7 m/S 726 mmHg 63%
    17:00 +23°C° 0,1 mm 7 m/S 726 mmHg 62%
    18:00 +23°C° 0 mm 7 m/S 726 mmHg 63%
    19:00 +23°C° 0 mm 6 m/S 725 mmHg 64%
    20:00 +22°C° 0 mm 6 m/S 725 mmHg 66%
    21:00 +22°C° 0,8 mm 5 m/S 725 mmHg 68%
    22:00 +22°C° 0,8 mm 4 m/S 725 mmHg 70%
    23:00 +23°C° 0,8 mm 2 m/S 725 mmHg 72%

    Morgen, 26 Februar, Montag

    Zeit Temperatur Niederschläge Wind Luftdruck Luftfeuchtigkeit
    00:00 +22°C° 0,3 mm 3 m/S 725 mmHg 72%
    01:00 +21°C° 0,3 mm 3 m/S 724 mmHg 72%
    02:00 +21°C° 0,3 mm 4 m/S 724 mmHg 72%
    03:00 +21°C° 0,1 mm 4 m/S 724 mmHg 70%
    04:00 +21°C° 0,1 mm 4 m/S 724 mmHg 68%
    05:00 +21°C° 0,1 mm 4 m/S 723 mmHg 66%
    06:00 +22°C° 0,1 mm 4 m/S 723 mmHg 61%
    07:00 +23°C° 0,1 mm 5 m/S 724 mmHg 55%
    08:00 +25°C° 0,1 mm 5 m/S 724 mmHg 49%
    09:00 +28°C° 0,1 mm 5 m/S 724 mmHg 44%
    10:00 +32°C° 0,1 mm 6 m/S 724 mmHg 39%
    11:00 +35°C° 0,1 mm 7 m/S 723 mmHg 34%
    12:00 +36°C° 0 mm 7 m/S 723 mmHg 33%
    13:00 +36°C° 0 mm 7 m/S 722 mmHg 31%
    14:00 +38°C° 0 mm 7 m/S 722 mmHg 30%
    15:00 +38°C° 0 mm 7 m/S 722 mmHg 30%
    16:00 +38°C° 0 mm 7 m/S 722 mmHg 31%
    17:00 +38°C° 0 mm 6 m/S 722 mmHg 32%
    18:00 +35°C° 0,6 mm 5 m/S 722 mmHg 38%
    19:00 +33°C° 0,6 mm 4 m/S 722 mmHg 43%
    20:00 +31°C° 0,6 mm 3 m/S 723 mmHg 48%
    21:00 +30°C° 0,4 mm 4 m/S 723 mmHg 51%
    22:00 +29°C° 0,4 mm 4 m/S 723 mmHg 53%
    23:00 +27°C° 0,4 mm 4 m/S 724 mmHg 56%

    übermorgen, 27 Februar, Dienstag

    Zeit Temperatur Niederschläge Wind Luftdruck Luftfeuchtigkeit
    00:00 +26°C° 0,1 mm 5 m/S 724 mmHg 60%
    01:00 +24°C° 0,1 mm 6 m/S 724 mmHg 65%
    02:00 +23°C° 0,1 mm 7 m/S 724 mmHg 69%
    03:00 +22°C° 0 mm 6 m/S 725 mmHg 71%
    04:00 +21°C° 0 mm 6 m/S 725 mmHg 73%
    05:00 +20°C° 0 mm 6 m/S 725 mmHg 75%
    06:00 +20°C° 0 mm 6 m/S 726 mmHg 73%
    07:00 +20°C° 0 mm 7 m/S 727 mmHg 70%
    08:00 +20°C° 0 mm 7 m/S 728 mmHg 68%
    09:00 +21°C° 0 mm 7 m/S 728 mmHg 60%
    10:00 +22°C° 0 mm 6 m/S 729 mmHg 52%
    11:00 +24°C° 0 mm 6 m/S 729 mmHg 45%
    12:00 +26°C° 0 mm 6 m/S 729 mmHg 39%
    13:00 +27°C° 0 mm 5 m/S 728 mmHg 34%
    14:00 +28°C° 0 mm 5 m/S 728 mmHg 29%
    15:00 +28°C° 0 mm 5 m/S 728 mmHg 27%
    16:00 +28°C° 0 mm 6 m/S 728 mmHg 25%
    17:00 +28°C° 0 mm 6 m/S 729 mmHg 24%
    18:00 +27°C° 0 mm 6 m/S 729 mmHg 28%
    19:00 +26°C° 0 mm 6 m/S 730 mmHg 32%
    20:00 +23°C° 0 mm 7 m/S 730 mmHg 36%
    21:00 +22°C° 0 mm 7 m/S 731 mmHg 40%
    22:00 +21°C° 0 mm 7 m/S 731 mmHg 43%
    23:00 +20°C° 0 mm 8 m/S 732 mmHg 47%

    28 Februar, Mittwoch

    Zeit Temperatur Niederschläge Wind Luftdruck Luftfeuchtigkeit
    00:00 +18°C° 0 mm 8 m/S 731 mmHg 51%
    01:00 +18°C° 0 mm 8 m/S 731 mmHg 54%
    02:00 +17°C° 0 mm 7 m/S 731 mmHg 58%
    03:00 +16°C° 0 mm 7 m/S 731 mmHg 61%
    04:00 +16°C° 0 mm 7 m/S 732 mmHg 63%
    05:00 +15°C° 0 mm 6 m/S 732 mmHg 66%
    06:00 +16°C° 0 mm 6 m/S 732 mmHg 64%
    07:00 +16°C° 0 mm 7 m/S 732 mmHg 62%
    08:00 +17°C° 0 mm 7 m/S 733 mmHg 60%
    09:00 +20°C° 0 mm 7 m/S 733 mmHg 53%
    10:00 +22°C° 0 mm 7 m/S 733 mmHg 46%
    11:00 +24°C° 0 mm 6 m/S 733 mmHg 39%
    12:00 +26°C° 0 mm 6 m/S 732 mmHg 35%
    13:00 +27°C° 0 mm 5 m/S 732 mmHg 32%
    14:00 +28°C° 0 mm 5 m/S 731 mmHg 29%
    15:00 +28°C° 0 mm 5 m/S 731 mmHg 28%
    16:00 +28°C° 0 mm 5 m/S 731 mmHg 27%
    17:00 +29°C° 0 mm 5 m/S 731 mmHg 26%
    18:00 +28°C° 0 mm 5 m/S 731 mmHg 28%
    19:00 +27°C° 0 mm 5 m/S 731 mmHg 30%
    20:00 +26°C° 0 mm 6 m/S 731 mmHg 32%
    21:00 +24°C° 0 mm 6 m/S 731 mmHg 34%
    22:00 +24°C° 0 mm 6 m/S 731 mmHg 36%
    23:00 +23°C° 0 mm 6 m/S 731 mmHg 38%

    1 März, Donnerstag

    Zeit Temperatur Niederschläge Wind Luftdruck Luftfeuchtigkeit
    00:00 +22°C° 0 mm 6 m/S 731 mmHg 40%
    01:00 +22°C° 0 mm 6 m/S 731 mmHg 42%
    02:00 +21°C° 0 mm 6 m/S 730 mmHg 45%
    03:00 +21°C° 0 mm 6 m/S 730 mmHg 49%
    04:00 +20°C° 0 mm 6 m/S 731 mmHg 53%
    05:00 +20°C° 0 mm 6 m/S 731 mmHg 57%
    06:00 +20°C° 0 mm 6 m/S 731 mmHg 57%
    07:00 +21°C° 0 mm 6 m/S 731 mmHg 57%
    08:00 +21°C° 0 mm 6 m/S 731 mmHg 57%
    09:00 +23°C° 0 mm 6 m/S 731 mmHg 50%
    10:00 +26°C° 0 mm 6 m/S 731 mmHg 44%
    11:00 +28°C° 0 mm 6 m/S 731 mmHg 37%
    12:00 +29°C° 0 mm 5 m/S 730 mmHg 35%
    13:00 +30°C° 0 mm 5 m/S 729 mmHg 32%
    14:00 +32°C° 0 mm 4 m/S 729 mmHg 29%
    15:00 +33°C° 0 mm 4 m/S 729 mmHg 28%
    16:00 +33°C° 0 mm 3 m/S 729 mmHg 28%
    17:00 +33°C° 0 mm 3 m/S 728 mmHg 28%
    18:00 +31°C° 0 mm 3 m/S 729 mmHg 29%
    19:00 +30°C° 0 mm 4 m/S 729 mmHg 31%
    20:00 +30°C° 0 mm 4 m/S 729 mmHg 33%
    21:00 +29°C° 0 mm 5 m/S 729 mmHg 35%
    22:00 +28°C° 0 mm 5 m/S 729 mmHg 37%
    23:00 +27°C° 0 mm 6 m/S 729 mmHg 38%

    2 März, Freitag

    Zeit Temperatur Niederschläge Wind Luftdruck Luftfeuchtigkeit
    00:00 +27°C° 0 mm 6 m/S 729 mmHg 42%
    01:00 +26°C° 0 mm 6 m/S 729 mmHg 45%
    02:00 +24°C° 0 mm 6 m/S 728 mmHg 48%
    03:00 +25°C° 0 mm 5 m/S 728 mmHg 50%
    04:00 +23°C° 0 mm 5 m/S 728 mmHg 53%
    05:00 +23°C° 0 mm 5 m/S 728 mmHg 55%
    06:00 +25°C° 0 mm 5 m/S 728 mmHg 53%
    07:00 +25°C° 0 mm 5 m/S 729 mmHg 50%
    08:00 +26°C° 0 mm 6 m/S 729 mmHg 48%
    09:00 +28°C° 0 mm 6 m/S 729 mmHg 42%
    10:00 +30°C° 0 mm 6 m/S 729 mmHg 37%
    11:00 +33°C° 0 mm 6 m/S 728 mmHg 31%
    12:00 +34°C° 0 mm 6 m/S 728 mmHg 29%
    13:00 +35°C° 0 mm 5 m/S 727 mmHg 27%
    14:00 +36°C° 0 mm 5 m/S 726 mmHg 25%
    15:00 +36°C° 0,1 mm 4 m/S 726 mmHg 26%
    16:00 +36°C° 0,1 mm 4 m/S 726 mmHg 28%
    17:00 +35°C° 0,1 mm 4 m/S 726 mmHg 29%
    18:00 +35°C° 0,1 mm 4 m/S 726 mmHg 31%
    19:00 +34°C° 0,1 mm 4 m/S 726 mmHg 33%
    20:00 +33°C° 0,1 mm 4 m/S 726 mmHg 35%
    21:00 +33°C° 0 mm 4 m/S 726 mmHg 36%
    22:00 +32°C° 0 mm 5 m/S 726 mmHg 38%
    23:00 +32°C° 0 mm 6 m/S 726 mmHg 40%
    Mehr zeigen